TimeEDT,TemperatureF,Dew PointF,Humidity,Sea Level PressureIn,VisibilityMPH,Wind Direction,Wind SpeedMPH,Gust SpeedMPH,PrecipitationIn,Events,Conditions,WindDirDegrees,DateUTC
12:20 AM,75.2,64.4,69,29.99,10.0,NNE,2.3,-,N/A,,Clear,20,2014-06-04 04:20:00
12:58 AM,74.3,64.4,71,29.99,10.0,NNE,3.5,-,0.00,,Clear,20,2014-06-04 04:58:00
1:58 AM,73.9,63.7,70,29.98,10.0,NNW,2.3,-,N/A,,Clear,330,2014-06-04 05:58:00
2:58 AM,73.9,63.0,68,29.96,10.0,North,3.5,-,N/A,,Partly Cloudy,350,2014-06-04 06:58:00
3:58 AM,74.1,62.4,67,29.95,10.0,NNW,2.3,-,N/A,,Partly Cloudy,340,2014-06-04 07:58:00
4:58 AM,72.9,61.9,68,29.95,10.0,NNW,4.6,-,N/A,,Clear,340,2014-06-04 08:58:00
5:58 AM,71.8,60.8,68,29.95,10.0,North,4.6,-,N/A,,Partly Cloudy,350,2014-06-04 09:58:00
6:58 AM,72.1,60.6,67,29.97,10.0,North,4.6,-,N/A,,Partly Cloudy,360,2014-06-04 10:58:00
7:58 AM,74.7,61.2,63,29.98,10.0,North,4.6,-,N/A,,Clear,10,2014-06-04 11:58:00
8:37 AM,77.0,62.6,61,29.97,10.0,NNE,4.6,-,N/A,,Mostly Cloudy,30,2014-06-04 12:37:00
8:58 AM,77.0,62.8,61,29.98,10.0,NE,4.6,-,N/A,,Scattered Clouds,50,2014-06-04 12:58:00
9:58 AM,79.0,64.0,60,29.98,10.0,NE,5.8,-,N/A,,Scattered Clouds,40,2014-06-04 13:58:00
10:48 AM,78.8,66.2,65,29.97,10.0,East,6.9,-,N/A,,Mostly Cloudy,80,2014-06-04 14:48:00
10:53 AM,78.8,66.2,65,29.97,10.0,East,9.2,-,N/A,,Scattered Clouds,80,2014-06-04 14:53:00
10:58 AM,79.2,65.1,62,29.98,10.0,East,9.2,-,N/A,,Scattered Clouds,90,2014-06-04 14:58:00
11:58 AM,81.7,66.0,59,29.99,10.0,East,12.7,-,N/A,,Partly Cloudy,90,2014-06-04 15:58:00
12:58 PM,81.1,68.2,65,29.99,10.0,East,12.7,-,N/A,,Scattered Clouds,90,2014-06-04 16:58:00
1:58 PM,81.7,68.2,63,29.98,10.0,East,9.2,-,N/A,,Scattered Clouds,80,2014-06-04 17:58:00
2:58 PM,82.6,69.1,64,29.97,10.0,East,11.5,-,N/A,,Partly Cloudy,80,2014-06-04 18:58:00
3:58 PM,82.0,69.4,65,29.96,10.0,East,11.5,-,N/A,,Partly Cloudy,80,2014-06-04 19:58:00
4:58 PM,81.0,68.5,66,29.95,10.0,East,9.2,-,N/A,,Partly Cloudy,80,2014-06-04 20:58:00
5:58 PM,81.5,68.7,65,29.94,10.0,East,9.2,-,N/A,,Scattered Clouds,90,2014-06-04 21:58:00
6:58 PM,80.1,68.4,67,29.94,10.0,East,5.8,-,N/A,,Scattered Clouds,80,2014-06-04 22:58:00
7:58 PM,79.0,68.0,69,29.95,10.0,East,8.1,-,N/A,,Scattered Clouds,100,2014-06-04 23:58:00
8:58 PM,79.0,67.8,69,29.95,10.0,East,9.2,-,N/A,,Mostly Cloudy,90,2014-06-05 00:58:00
9:58 PM,78.6,67.8,69,29.97,10.0,East,6.9,-,N/A,,Mostly Cloudy,90,2014-06-05 01:58:00
10:58 PM,78.8,67.6,68,29.97,10.0,East,8.1,-,N/A,,Overcast,90,2014-06-05 02:58:00
11:58 PM,78.3,68.0,71,29.97,10.0,East,6.9,-,N/A,,Mostly Cloudy,100,2014-06-05 03:58:00